This is the latest recevied weather packets stored in our database for station/object K5YNC. If no packets are shown the sender has not sent any weather packets the latest 10 day(s).
| Time | Temp. | Humidity | Pressure | Rain* | Wind** | Luminosity | Snow |
|---|---|---|---|---|---|---|---|
| 1777897316 | 16.67° C | 70% | 1013 hPa | 0 mm | - | 39 W/m² | - |
| 1777897013 | 16.67° C | 70% | 1013 hPa | 0 mm | - | 37 W/m² | - |
| 1777896710 | 16.67° C | 69% | 1013 hPa | 0 mm | - | 32 W/m² | - |
| 1777896407 | 16.67° C | 69% | 1012.8 hPa | 0 mm | - | 29 W/m² | - |
| 1777896105 | 16.67° C | 69% | 1012.9 hPa | 0 mm | - | 24 W/m² | - |
| 1777895803 | 16.67° C | 69% | 1012.9 hPa | 0 mm | - | 19 W/m² | - |
| 1777895500 | 16.67° C | 69% | 1012.7 hPa | 0 mm | - | 14 W/m² | - |
| 1777895197 | 16.67° C | 69% | 1012.7 hPa | 0 mm | - | 8 W/m² | - |
| 1777894895 | 16.67° C | 68% | 1012.8 hPa | 0 mm | - | 5 W/m² | - |
| 1777894592 | 16.67° C | 69% | 1012.9 hPa | 0 mm | - | 3 W/m² | - |
| 1777894289 | 16.67° C | 69% | 1012.7 hPa | 0 mm | - | 1 W/m² | - |
| 1777893986 | 16.67° C | 69% | 1012.8 hPa | 0 mm | - | 0 W/m² | - |
| 1777893682 | 16.67° C | 68% | 1012.8 hPa | 0 mm | - | 0 W/m² | - |
| 1777893378 | 16.67° C | 68% | 1012.8 hPa | 0 mm | - | 0 W/m² | - |
| 1777893074 | 16.67° C | 68% | 1012.8 hPa | 0 mm | - | 0 W/m² | - |
| 1777892772 | 16.67° C | 68% | 1012.7 hPa | 0 mm | - | 0 W/m² | - |
| 1777892468 | 16.67° C | 67% | 1012.8 hPa | 0 mm | - | 0 W/m² | - |
| 1777892164 | 16.67° C | 67% | 1012.8 hPa | 0 mm | - | 0 W/m² | - |
| 1777891860 | 16.67° C | 67% | 1012.9 hPa | 0 mm | - | 0 W/m² | - |
| 1777891558 | 16.67° C | 66% | 1013.2 hPa | 0 mm | - | 0 W/m² | - |
| 1777891254 | 16.67° C | 66% | 1013.1 hPa | 0 mm | - | 0 W/m² | - |
| 1777890954 | 16.11° C | 66% | 1013.2 hPa | 0 mm | - | 0 W/m² | - |
| 1777890649 | 16.11° C | 66% | 1013.1 hPa | 0 mm | - | 0 W/m² | - |
| 1777890345 | 15.56° C | 67% | 1013.1 hPa | 0 mm | - | 0 W/m² | - |
| 1777890041 | 15.56° C | 67% | 1013.2 hPa | 0 mm | - | 0 W/m² | - |
* Rain latest hour (hover to see other rain measurements)
** Current wind speed in m/s (hover to see current wind gust speed)